Location: Unspecified
(51.6250°N, 0.8230°E)
Time: 14:54:59
(UTC+00:00)

ISS - Visible Passes

Search period start: 18 December 2017 00:00
Search period end: 28 December 2017 00:00
Orbit: 402 x 406 km, 51.6° (Epoch: 19 December)

Date Brightness Start Highest point End Pass type
(mag) Time Alt. Az. Time Alt. Az. Time Alt. Az.
19 Dec 0.2 16:39:54 10° SW 16:40:20 10° SW 16:40:46 10° SW visible
26 Dec -0.9 07:19:48 10° SSW 07:22:20 21° SE 07:24:53 10° E visible
27 Dec -0.6 06:28:29 10° S 06:30:13 14° SE 06:31:57 10° ESE visible
